This is the latest recevied weather packets stored in our database for station/object KI6AOK. If no packets are shown the sender has not sent any weather packets the latest 10 day(s).
| Time | Temp. | Humidity | Pressure | Rain* | Wind** | Luminosity | Snow |
|---|---|---|---|---|---|---|---|
| 1777824973 | 16.67° C | 74% | 1014 hPa | 0 mm | - | 179 W/m² | - |
| 1777824668 | 16.67° C | 76% | 1014.1 hPa | 0 mm | - | 176 W/m² | - |
| 1777824366 | 16.67° C | 76% | 1014.1 hPa | 0 mm | - | 160 W/m² | - |
| 1777824067 | 17.22° C | 75% | 1014.2 hPa | 0 mm | - | 161 W/m² | - |
| 1777823764 | 16.67° C | 76% | 1013.9 hPa | 0 mm | - | 183 W/m² | - |
| 1777823461 | 16.67° C | 77% | 1013.8 hPa | 0 mm | - | 183 W/m² | - |
| 1777823158 | 16.11° C | 79% | 1013.9 hPa | 0 mm | - | 183 W/m² | - |
| 1777822855 | 16.11° C | 79% | 1014 hPa | 0 mm | - | 186 W/m² | - |
| 1777822553 | 15.56° C | 80% | 1013.9 hPa | 0 mm | - | 174 W/m² | - |
| 1777822250 | 15.56° C | 80% | 1014 hPa | 0 mm | - | 161 W/m² | - |
| 1777821948 | 15.56° C | 82% | 1014 hPa | 0 mm | - | 139 W/m² | - |
| 1777821646 | 15.56° C | 83% | 1014 hPa | 0 mm | - | 133 W/m² | - |
| 1777821344 | 15.56° C | 84% | 1014.1 hPa | 0 mm | - | 114 W/m² | - |
| 1777821040 | 15° C | 84% | 1014.1 hPa | 0 mm | - | 103 W/m² | - |
| 1777820737 | 15° C | 84% | 1014 hPa | 0 mm | - | 99 W/m² | - |
| 1777820433 | 15° C | 86% | 1014.1 hPa | 0 mm | - | 91 W/m² | - |
| 1777820131 | 15° C | 86% | 1014 hPa | 0 mm | - | 90 W/m² | - |
| 1777819827 | 15° C | 88% | 1014 hPa | 0 mm | - | 79 W/m² | - |
| 1777819525 | 15° C | 89% | 1013.7 hPa | 0 mm | - | 74 W/m² | - |
| 1777819222 | 14.44° C | 90% | 1013.7 hPa | 0 mm | - | 70 W/m² | - |
| 1777818919 | 14.44° C | 90% | 1013.8 hPa | 0 mm | - | 63 W/m² | - |
| 1777818615 | 14.44° C | 92% | 1013.6 hPa | 0 mm | - | 50 W/m² | - |
| 1777818313 | 14.44° C | 92% | 1013.6 hPa | 0 mm | - | 59 W/m² | - |
| 1777818009 | 14.44° C | 92% | 1013.8 hPa | 0 mm | - | 51 W/m² | - |
| 1777817706 | 14.44° C | 92% | 1013.7 hPa | 0 mm | - | 42 W/m² | - |
* Rain latest hour (hover to see other rain measurements)
** Current wind speed in m/s (hover to see current wind gust speed)